Weather History for KODX - April, 2014

Change the Weather History Date:

Wednesday, April 30, 2014

  Actual Average Record
Temperature  
Mean Temperature 43 °F 54 °F  
Max Temperature 50 °F 66 °F 86 °F (2007)
Min Temperature 36 °F 41 °F 30 °F (2005)
Degree Days  
Heating Degree Days 22 12  
Month to date heating degree days 499 489  
Since 1 July heating degree days 6353  
Cooling Degree Days 0 0  
Month to date cooling degree days 1 2  
Year to date cooling degree days 1 2  
Moisture  
Dew Point 29 °F    
Average Humidity 61    
Maximum Humidity 85    
Minimum Humidity 36    
Precipitation  
Precipitation T in 0.11 in 3.74 in (1906)
Month to date precipitation 1.26 2.59  
Year to date precipitation 1.71 4.85  
Sea Level Pressure  
Sea Level Pressure 30.05 in    
Wind  
Wind Speed 25 mph (NW)    
Max Wind Speed 38 mph    
Max Gust Speed 45 mph    
Visibility 10 miles    
Events      
T = Trace of Precipitation, MM = Missing Value Source: NWS Daily Summary

Daily Weather History Graph

Daily Weather History Graph

Search for Another Location

Airport or City:

Trip Planner

Search our weather history database for the weather conditions in past years. The results will help you decide how hot, cold, wet, or windy it might be!

Date:

Astronomy

Apr. 30, 2014 Rise Set
Actual Time 6:33 AM CDT 8:32 PM CDT
Civil Twilight 6:03 AM CDT 9:03 PM CDT
Nautical Twilight 5:26 AM CDT 9:40 PM CDT
Astronomical Twilight 4:47 AM CDT 10:20 PM CDT
Moon 7:35 AM CDT (4/30) 10:13 PM CDT (4/30)
Length of Visible Light 14h 59m
Length of Day
13h 59m
New Moon, 2% of the Moon is Illuminated
Apr 30
New Moon
May 6
First Quarter
May 14
Full
May 21
Last Quarter
May 28
New

Hourly Weather History & Observations

Time (CDT) Temp. Windchill Dew Point Humidity Pressure Visibility Wind Dir Wind Speed Gust Speed Precip Events Conditions
12:53 AM 41.0 °F 31.1 °F 35.1 °F 79% 30.03 in 10.0 mi NW 23.0 mph 31.1 mph N/A   Overcast
1:53 AM 39.9 °F 29.7 °F 34.0 °F 79% 30.05 in 10.0 mi NW 23.0 mph 32.2 mph N/A   Overcast
2:53 AM 37.9 °F 27.6 °F 33.1 °F 83% 30.04 in 10.0 mi NW 20.7 mph 28.8 mph 0.00 in   Mostly Cloudy
3:53 AM 37.0 °F 26.2 °F 32.0 °F 82% 30.05 in 10.0 mi NW 21.9 mph - N/A   Clear
4:53 AM 36.0 °F 25.6 °F 30.9 °F 82% 30.05 in 10.0 mi NW 18.4 mph - N/A   Clear
5:53 AM 35.6 °F 24.2 °F 30.2 °F 81% 30.01 in 10.0 mi NW 21.9 mph 27.6 mph N/A   Clear
6:53 AM 36.0 °F 25.0 °F 30.9 °F 82% 30.07 in 10.0 mi NW 20.7 mph 27.6 mph N/A   Clear
7:53 AM 37.9 °F 27.1 °F 32.0 °F 79% 30.07 in 10.0 mi NW 23.0 mph 32.2 mph N/A   Clear
8:53 AM 41.0 °F 30.5 °F 30.9 °F 67% 30.07 in 10.0 mi NW 26.5 mph 36.8 mph N/A   Clear
9:53 AM 42.8 °F 33.1 °F 30.2 °F 61% 30.03 in 10.0 mi NW 25.3 mph 36.8 mph N/A   Clear
10:53 AM 46.0 °F 36.5 °F 25.0 °F 44% 30.07 in 10.0 mi NNW 31.1 mph 42.6 mph N/A   Mostly Cloudy
11:53 AM 46.9 °F - 26.1 °F 44% 30.07 in 10.0 mi NNW 32.2 mph 40.3 mph N/A   Mostly Cloudy
12:53 PM 48.0 °F - 24.1 °F 39% 30.05 in 10.0 mi NW 29.9 mph 38.0 mph N/A   Mostly Cloudy
1:53 PM 48.9 °F - 24.1 °F 38% 30.05 in 10.0 mi NNW 26.5 mph 39.1 mph N/A   Overcast
2:53 PM 50.0 °F - 24.1 °F 36% 30.05 in 10.0 mi NNW 31.1 mph 40.3 mph N/A   Overcast
3:53 PM 50.0 °F - 24.1 °F 36% 30.04 in 10.0 mi NW 36.8 mph 44.9 mph N/A   Overcast
4:53 PM 48.9 °F - 25.0 °F 39% 30.04 in 10.0 mi NNW 28.8 mph 39.1 mph N/A   Overcast
5:53 PM 48.9 °F - 25.0 °F 39% 30.04 in 10.0 mi NNW 28.8 mph 39.1 mph N/A   Overcast
6:53 PM 46.9 °F - 27.0 °F 46% 30.06 in 10.0 mi NNW 21.9 mph 32.2 mph N/A   Overcast
7:53 PM 46.0 °F 38.5 °F 28.0 °F 50% 30.06 in 10.0 mi NNW 19.6 mph 32.2 mph N/A   Overcast
8:53 PM 45.0 °F 36.0 °F 28.9 °F 53% 30.06 in 10.0 mi NNW 25.3 mph 36.8 mph N/A   Overcast
9:53 PM 45.0 °F 36.2 °F 28.0 °F 52% 30.06 in 10.0 mi NNW 24.2 mph 32.2 mph N/A   Overcast
10:53 PM 43.0 °F 34.8 °F 30.0 °F 60% 30.06 in 10.0 mi NNW 18.4 mph 25.3 mph N/A   Partly Cloudy
11:53 PM 43.0 °F 35.4 °F 30.9 °F 62% 30.06 in 10.0 mi NNW 16.1 mph 26.5 mph N/A   Mostly Cloudy